TimePDT,TemperatureF,Dew PointF,Humidity,Sea Level PressureIn,VisibilityMPH,Wind Direction,Wind SpeedMPH,Gust SpeedMPH,PrecipitationIn,Events,Conditions,WindDirDegrees,DateUTC
12:53 AM,53.6,39.2,58,29.78,10.0,SW,6.9,-,N/A,Rain,Light Rain,230,2011-10-04 07:53:00
1:53 AM,54.0,39.9,59,29.73,10.0,Calm,Calm,-,0.00,Rain,Light Rain,0,2011-10-04 08:53:00
2:53 AM,52.0,43.0,71,29.71,10.0,WSW,4.6,-,0.00,Rain,Light Rain,240,2011-10-04 09:53:00
3:53 AM,51.8,44.6,76,29.74,10.0,SSE,5.8,-,N/A,Rain,Light Rain,150,2011-10-04 10:53:00
4:53 AM,50.0,43.0,77,29.71,10.0,South,5.8,-,0.00,,Overcast,180,2011-10-04 11:53:00
5:53 AM,50.0,45.0,83,29.72,10.0,SSW,5.8,-,0.00,,Overcast,200,2011-10-04 12:53:00
6:53 AM,50.0,44.1,80,29.74,10.0,SW,10.4,-,N/A,,Overcast,220,2011-10-04 13:53:00
7:53 AM,48.9,46.0,90,29.77,6.0,SW,10.4,-,0.00,Rain,Light Rain,220,2011-10-04 14:53:00
8:50 AM,48.2,46.4,93,29.76,8.0,South,5.8,-,N/A,Rain,Light Rain,190,2011-10-04 15:50:00
8:53 AM,48.2,46.4,93,29.76,7.0,South,5.8,-,N/A,Rain,Light Rain,180,2011-10-04 15:53:00
9:53 AM,50.0,48.0,93,29.76,10.0,South,9.2,-,0.01,,Overcast,190,2011-10-04 16:53:00
10:53 AM,50.0,48.0,93,29.75,10.0,SSE,8.1,-,0.00,Rain,Light Rain,160,2011-10-04 17:53:00
11:26 AM,51.8,48.2,88,29.74,10.0,SSE,6.9,-,0.01,Rain,Light Rain,160,2011-10-04 18:26:00
11:53 AM,51.1,48.0,89,29.75,10.0,South,8.1,-,0.01,Rain,Light Rain,180,2011-10-04 18:53:00
12:53 PM,51.1,46.9,86,29.73,10.0,South,6.9,-,0.01,Rain,Light Rain,180,2011-10-04 19:53:00
1:53 PM,53.1,46.0,77,29.70,10.0,SSE,5.8,-,0.00,,Mostly Cloudy,160,2011-10-04 20:53:00
2:53 PM,53.6,44.6,72,29.71,10.0,South,5.8,-,N/A,,Overcast,170,2011-10-04 21:53:00
3:53 PM,54.0,44.1,69,29.69,10.0,SE,6.9,-,N/A,,Overcast,130,2011-10-04 22:53:00
4:53 PM,53.1,44.1,71,29.67,10.0,SE,6.9,-,N/A,,Mostly Cloudy,130,2011-10-04 23:53:00
5:53 PM,53.1,46.0,77,29.66,10.0,ESE,6.9,-,N/A,,Mostly Cloudy,110,2011-10-05 00:53:00
6:53 PM,52.0,46.0,80,29.65,10.0,East,5.8,-,N/A,,Mostly Cloudy,90,2011-10-05 01:53:00
7:53 PM,50.0,46.0,86,29.64,10.0,NE,3.5,-,N/A,,Mostly Cloudy,50,2011-10-05 02:53:00
8:53 PM,50.0,46.0,86,29.62,10.0,ENE,8.1,-,N/A,,Mostly Cloudy,60,2011-10-05 03:53:00
9:53 PM,48.9,46.0,90,29.60,10.0,ENE,6.9,-,N/A,,Scattered Clouds,60,2011-10-05 04:53:00
10:53 PM,48.0,46.0,93,29.58,10.0,ENE,8.1,-,N/A,,Scattered Clouds,70,2011-10-05 05:53:00
11:53 PM,46.9,46.0,97,29.55,10.0,ENE,9.2,-,N/A,,Mostly Cloudy,60,2011-10-05 06:53:00